When you browse on this site, cookies collect data to enhance your experience and personalize the content and advertising you see.
Visit our Privacy Policy to learn more. By continuing to use the site, you agree to this use of cookies and data.
  • In Latvia
  • List of Countries
  • For 7 days
  • Water Temperature
  • Weather Map
  • Weather Widgets
  • user-avatar
    Login

    Hourly Weather Asuan

    Today, 31 May, Sunday

    Time Temperature Precipitation Wind Pressure Humidity
    00:00 +27°C° 0 mm 6 mps 743 mmHg 13%
    01:00 +26°C° 0 mm 6 mps 743 mmHg 14%
    02:00 +24°C° 0 mm 6 mps 742 mmHg 15%
    03:00 +24°C° 0 mm 6 mps 742 mmHg 17%
    04:00 +23°C° 0 mm 6 mps 742 mmHg 19%
    05:00 +23°C° 0 mm 6 mps 743 mmHg 21%
    06:00 +26°C° 0 mm 6 mps 743 mmHg 19%
    07:00 +28°C° 0 mm 7 mps 743 mmHg 17%
    08:00 +31°C° 0 mm 8 mps 743 mmHg 14%
    09:00 +33°C° 0 mm 7 mps 743 mmHg 12%
    10:00 +35°C° 0 mm 6 mps 743 mmHg 10%
    11:00 +37°C° 0 mm 5 mps 743 mmHg 7%
    12:00 +39°C° 0 mm 5 mps 742 mmHg 7%
    13:00 +41°C° 0 mm 5 mps 741 mmHg 6%
    14:00 +41°C° 0 mm 5 mps 741 mmHg 5%
    15:00 +41°C° 0 mm 5 mps 741 mmHg 5%
    16:00 +41°C° 0 mm 6 mps 740 mmHg 6%
    17:00 +41°C° 0 mm 6 mps 740 mmHg 6%
    18:00 +38°C° 0 mm 6 mps 741 mmHg 7%
    19:00 +35°C° 0 mm 5 mps 741 mmHg 7%
    20:00 +33°C° 0 mm 5 mps 741 mmHg 8%
    21:00 +32°C° 0 mm 5 mps 741 mmHg 9%
    22:00 +30°C° 0 mm 5 mps 742 mmHg 10%
    23:00 +29°C° 0 mm 5 mps 742 mmHg 11%

    Tomorrow, 1 June, Monday

    Time Temperature Precipitation Wind Pressure Humidity
    00:00 +28°C° 0 mm 5 mps 742 mmHg 12%
    01:00 +27°C° 0 mm 5 mps 742 mmHg 12%
    02:00 +27°C° 0 mm 5 mps 741 mmHg 13%
    03:00 +26°C° 0 mm 5 mps 742 mmHg 14%
    04:00 +26°C° 0 mm 5 mps 742 mmHg 15%
    05:00 +26°C° 0 mm 5 mps 742 mmHg 16%
    06:00 +28°C° 0 mm 5 mps 742 mmHg 15%
    07:00 +30°C° 0 mm 6 mps 742 mmHg 13%
    08:00 +34°C° 0 mm 6 mps 742 mmHg 11%
    09:00 +36°C° 0 mm 6 mps 742 mmHg 11%
    10:00 +39°C° 0 mm 6 mps 742 mmHg 11%
    11:00 +41°C° 0 mm 5 mps 742 mmHg 11%
    12:00 +42°C° 0 mm 6 mps 741 mmHg 10%
    13:00 +44°C° 0 mm 6 mps 740 mmHg 10%
    14:00 +45°C° 0 mm 6 mps 740 mmHg 10%
    15:00 +45°C° 0 mm 6 mps 739 mmHg 9%
    16:00 +45°C° 0 mm 6 mps 739 mmHg 9%
    17:00 +44°C° 0 mm 6 mps 739 mmHg 9%
    18:00 +41°C° 0 mm 5 mps 739 mmHg 10%
    19:00 +38°C° 0 mm 4 mps 739 mmHg 12%
    20:00 +35°C° 0 mm 3 mps 739 mmHg 13%
    21:00 +35°C° 0 mm 3 mps 739 mmHg 14%
    22:00 +34°C° 0 mm 3 mps 740 mmHg 14%
    23:00 +33°C° 0 mm 4 mps 740 mmHg 14%

    Day after tomorrow, 2 June, Tuesday

    Time Temperature Precipitation Wind Pressure Humidity
    00:00 +32°C° 0 mm 4 mps 739 mmHg 15%
    01:00 +32°C° 0 mm 4 mps 739 mmHg 16%
    02:00 +30°C° 0 mm 4 mps 739 mmHg 17%
    03:00 +29°C° 0 mm 3 mps 739 mmHg 20%
    04:00 +28°C° 0 mm 2 mps 739 mmHg 24%
    05:00 +26°C° 0 mm 1 mps 739 mmHg 27%
    06:00 +29°C° 0 mm 1 mps 739 mmHg 23%
    07:00 +32°C° 0 mm 1 mps 740 mmHg 19%
    08:00 +35°C° 0 mm 1 mps 740 mmHg 15%
    09:00 +37°C° 0 mm 1 mps 740 mmHg 13%
    10:00 +40°C° 0 mm 1 mps 740 mmHg 11%
    11:00 +42°C° 0 mm 2 mps 740 mmHg 9%
    12:00 +43°C° 0 mm 2 mps 739 mmHg 9%
    13:00 +45°C° 0 mm 3 mps 739 mmHg 8%
    14:00 +47°C° 0 mm 4 mps 738 mmHg 8%
    15:00 +47°C° 0 mm 5 mps 738 mmHg 8%
    16:00 +46°C° 0 mm 5 mps 738 mmHg 8%
    17:00 +46°C° 0 mm 6 mps 738 mmHg 8%
    18:00 +44°C° 0 mm 6 mps 738 mmHg 10%
    19:00 +40°C° 0 mm 6 mps 738 mmHg 12%
    20:00 +38°C° 0 mm 6 mps 739 mmHg 13%
    21:00 +36°C° 0 mm 5 mps 739 mmHg 13%
    22:00 +35°C° 0 mm 5 mps 739 mmHg 12%
    23:00 +34°C° 0 mm 5 mps 740 mmHg 12%

    3 June, Wednesday

    Time Temperature Precipitation Wind Pressure Humidity
    00:00 +33°C° 0 mm 5 mps 739 mmHg 13%
    01:00 +32°C° 0 mm 4 mps 739 mmHg 13%
    02:00 +30°C° 0 mm 4 mps 739 mmHg 14%
    03:00 +30°C° 0 mm 4 mps 739 mmHg 15%
    04:00 +29°C° 0 mm 4 mps 739 mmHg 16%
    05:00 +28°C° 0 mm 4 mps 739 mmHg 17%
    06:00 +32°C° 0 mm 5 mps 740 mmHg 15%
    07:00 +34°C° 0 mm 5 mps 740 mmHg 13%
    08:00 +36°C° 0 mm 5 mps 740 mmHg 12%
    09:00 +39°C° 0 mm 6 mps 740 mmHg 11%
    10:00 +41°C° 0 mm 6 mps 740 mmHg 10%
    11:00 +42°C° 0 mm 6 mps 740 mmHg 10%
    12:00 +44°C° 0 mm 6 mps 739 mmHg 9%
    13:00 +45°C° 0 mm 5 mps 739 mmHg 9%
    14:00 +46°C° 0 mm 5 mps 738 mmHg 8%
    15:00 +46°C° 0 mm 5 mps 738 mmHg 8%
    16:00 +45°C° 0 mm 5 mps 738 mmHg 9%
    17:00 +45°C° 0 mm 5 mps 738 mmHg 9%
    18:00 +42°C° 0 mm 5 mps 738 mmHg 10%
    19:00 +40°C° 0 mm 5 mps 738 mmHg 12%
    20:00 +37°C° 0 mm 5 mps 739 mmHg 13%
    21:00 +36°C° 0 mm 5 mps 739 mmHg 15%
    22:00 +36°C° 0 mm 5 mps 739 mmHg 16%
    23:00 +35°C° 0 mm 5 mps 740 mmHg 18%

    4 June, Thursday

    Time Temperature Precipitation Wind Pressure Humidity
    00:00 +34°C° 0 mm 5 mps 739 mmHg 20%
    01:00 +33°C° 0 mm 4 mps 739 mmHg 21%
    02:00 +32°C° 0 mm 4 mps 739 mmHg 23%
    03:00 +30°C° 0 mm 4 mps 739 mmHg 24%
    04:00 +30°C° 0 mm 3 mps 739 mmHg 25%
    05:00 +29°C° 0 mm 3 mps 739 mmHg 27%
    06:00 +33°C° 0 mm 4 mps 739 mmHg 23%
    07:00 +35°C° 0 mm 5 mps 740 mmHg 20%
    08:00 +38°C° 0 mm 6 mps 740 mmHg 17%
    09:00 +40°C° 0 mm 5 mps 740 mmHg 15%
    10:00 +42°C° 0 mm 5 mps 740 mmHg 13%
    11:00 +45°C° 0 mm 5 mps 740 mmHg 11%
    12:00 +45°C° 0 mm 4 mps 739 mmHg 10%
    13:00 +47°C° 0 mm 4 mps 738 mmHg 9%
    14:00 +48°C° 0 mm 4 mps 738 mmHg 8%
    15:00 +48°C° 0 mm 5 mps 738 mmHg 8%
    16:00 +48°C° 0 mm 5 mps 738 mmHg 8%
    17:00 +47°C° 0 mm 5 mps 737 mmHg 8%
    18:00 +45°C° 0 mm 5 mps 738 mmHg 10%
    19:00 +42°C° 0 mm 4 mps 738 mmHg 11%
    20:00 +39°C° 0 mm 3 mps 738 mmHg 12%
    21:00 +38°C° 0 mm 3 mps 739 mmHg 14%
    22:00 +37°C° 0 mm 4 mps 739 mmHg 15%
    23:00 +36°C° 0 mm 4 mps 739 mmHg 16%

    5 June, Friday

    Time Temperature Precipitation Wind Pressure Humidity
    00:00 +35°C° 0 mm 4 mps 739 mmHg 16%
    01:00 +34°C° 0 mm 4 mps 739 mmHg 17%
    02:00 +33°C° 0 mm 4 mps 738 mmHg 17%
    03:00 +33°C° 0 mm 4 mps 739 mmHg 18%
    04:00 +31°C° 0 mm 3 mps 739 mmHg 19%
    05:00 +30°C° 0 mm 3 mps 739 mmHg 20%
    06:00 +34°C° 0 mm 4 mps 740 mmHg 19%
    07:00 +36°C° 0 mm 4 mps 740 mmHg 17%
    08:00 +39°C° 0 mm 5 mps 741 mmHg 15%
    09:00 +41°C° 0 mm 4 mps 741 mmHg 13%
    10:00 +43°C° 0 mm 4 mps 740 mmHg 12%
    11:00 +45°C° 0 mm 4 mps 740 mmHg 10%
    12:00 +46°C° 0 mm 3 mps 740 mmHg 10%
    13:00 +46°C° 0 mm 3 mps 739 mmHg 9%
    14:00 +47°C° 0 mm 3 mps 739 mmHg 8%
    15:00 +47°C° 0 mm 3 mps 739 mmHg 8%
    16:00 +48°C° 0 mm 4 mps 738 mmHg 8%
    17:00 +48°C° 0 mm 5 mps 738 mmHg 7%
    18:00 +46°C° 0 mm 5 mps 738 mmHg 9%
    19:00 +43°C° 0 mm 4 mps 739 mmHg 10%
    20:00 +41°C° 0 mm 4 mps 739 mmHg 11%
    21:00 +40°C° 0 mm 5 mps 740 mmHg 13%
    22:00 +39°C° 0 mm 6 mps 740 mmHg 15%
    23:00 +36°C° 0 mm 7 mps 740 mmHg 18%
    Show more